Location: Unspecified
(0.0000°N, 0.0000°E)
Time: 07:47:36
(UTC+00:00)

Transit 4A - Pass Details

Date: 03 June 2022
Orbit: 864 x 980 km, 66.8° (Epoch: 24 June)

Event Time Altitude Azimuth Distance (km) Brightness Sun altitude
Rises 23:32:10 0° 185° (S) 3,576 - -66.7°
Reaches altitude 10° 23:34:50 10° 177° (S) 2,648 - -66.9°
Maximum altitude 23:40:34 40° 109° (ESE) 1,372 - -67.2°
Drops below altitude 10° 23:46:25 10° 41° (NE) 2,702 - -67.4°
Sets 23:49:09 0° 34° (NE) 3,656 - -67.5°
